| time (UTC) | temp C | wind direction | speed KPH | gust KPH | rain 1hr cm | rain 24hr cm | rain mn cm | humidity % | barometer mb |
| 20260507130017 | 5 | 173 | 0.0 | 4.8 | 0.00 | 0.28 | 0.00 | 79 | 1013.2 |
| 20260507125147 | 5 | 163 | 0.0 | 1.6 | 0.00 | 0.30 | 0.00 | 89 | 1011.7 |
| 20260507124549 | 5 | 194 | 1.6 | 4.8 | 0.00 | 0.53 | 0.00 | 83 | 1013.1 |
| 20260507123310 | 4 | 163 | 0.0 | 1.6 | 0.00 | 0.33 | 0.00 | 90 | 1011.7 |
| 20260507123115 | 5 | 172 | 0.0 | 1.6 | 0.00 | 0.53 | 0.00 | 84 | 1013.1 |
| 20260507122347 | 4 | 0 | 0.0 | 0.0 | 0.00 | 0.38 | 0.00 | 90 | 1011.6 |
| 20260507121621 | 5 | 158 | 0.0 | 1.6 | 0.00 | 0.53 | 0.00 | 89 | 1013.1 |
| 20260507120500 | 3 | 161 | 0.0 | 1.6 | 0.00 | 0.48 | 0.00 | 93 | 1011.5 |
| 20260507120151 | 3 | 162 | 0.0 | 1.6 | 0.00 | 0.53 | 0.00 | 92 | 1012.9 |
| 20260507115602 | 3 | 190 | 0.0 | 1.6 | 0.00 | 0.56 | 0.00 | 94 | 1011.5 |
| 20260507114633 | 2 | 0 | 0.0 | 0.0 | 0.00 | 0.64 | 0.00 | 96 | 1011.4 |
| 20260507113122 | 2 | 277 | 0.0 | 1.6 | 0.00 | 0.84 | 0.00 | 96 | 1012.9 |
| 20260507112950 | 1 | 0 | 0.0 | 0.0 | 0.00 | 0.69 | 0.00 | 97 | 1011.3 |
| 20260507111902 | 0 | 0 | 0.0 | 0.0 | 0.00 | 0.74 | 0.00 | 96 | 1011.3 |
| 20260507111510 | 1 | 277 | 0.0 | 1.6 | 0.00 | 0.84 | 0.00 | 97 | 1012.8 |
| 20260507111116 | 0 | 0 | 0.0 | 0.0 | 0.00 | 0.79 | 0.00 | 96 | 1011.3 |
| 20260507110247 | 0 | 0 | 0.0 | 0.0 | 0.00 | 0.84 | 0.00 | 96 | 1011.2 |
| 20260507104606 | 0 | 277 | 0.0 | 0.0 | 0.00 | 1.09 | 0.00 | 96 | 1012.6 |
| 20260507104348 | 1 | 0 | 0.0 | 0.0 | 0.00 | 0.94 | 0.00 | 94 | 1011.3 |
| 20260507103352 | 1 | 0 | 0.0 | 0.0 | 0.00 | 0.97 | 0.00 | 94 | 1011.1 |
| 20260507103050 | 0 | 277 | 0.0 | 0.0 | 0.00 | 1.09 | 0.00 | 96 | 1012.5 |
| 20260507102657 | 1 | 0 | 0.0 | 0.0 | 0.00 | 0.99 | 0.00 | 93 | 1011.0 |
| 20260507101521 | 0 | 277 | 0.0 | 0.0 | 0.00 | 1.09 | 0.00 | 96 | 1012.3 |
| 20260507100006 | 0 | 277 | 0.0 | 0.0 | 0.00 | 1.09 | 0.00 | 94 | 1012.2 |
| 20260507095156 | 2 | 283 | 0.0 | 1.6 | 0.00 | 1.17 | 0.00 | 93 | 1010.9 |
| 20260507094502 | 1 | 277 | 0.0 | 0.0 | 0.00 | 1.24 | 0.00 | 94 | 1012.2 |
| 20260507094143 | 2 | 0 | 0.0 | 0.0 | 0.00 | 1.22 | 0.00 | 93 | 1011.0 |
| 20260507093141 | 2 | 295 | 0.0 | 1.6 | 0.00 | 1.24 | 0.00 | 93 | 1011.0 |
| 20260507093122 | 1 | 277 | 0.0 | 1.6 | 0.00 | 1.24 | 0.00 | 93 | 1012.2 |
| 20260507092226 | 2 | 0 | 0.0 | 0.0 | 0.00 | 1.30 | 0.00 | 93 | 1011.0 |
| 20260507091615 | 1 | 277 | 0.0 | 3.2 | 0.00 | 1.24 | 0.00 | 93 | 1012.1 |
| 20260507091346 | 2 | 0 | 0.0 | 0.0 | 0.00 | 1.32 | 0.00 | 93 | 1010.9 |
| 20260507090101 | 2 | 282 | 0.0 | 3.2 | 0.00 | 1.24 | 0.00 | 93 | 1012.2 |
| 20260507085739 | 2 | 0 | 0.0 | 0.0 | 0.00 | 1.35 | 0.00 | 92 | 1011.0 |
| 20260507084700 | 2 | 0 | 0.0 | 0.0 | 0.00 | 1.37 | 0.00 | 92 | 1011.1 |
| 20260507084549 | 2 | 297 | 0.0 | 3.2 | 0.00 | 1.42 | 0.00 | 93 | 1012.3 |
| 20260507083734 | 2 | 0 | 0.0 | 0.0 | 0.00 | 1.42 | 0.00 | 92 | 1011.0 |
| 20260507083121 | 2 | 276 | 0.0 | 1.6 | 0.00 | 1.42 | 0.00 | 93 | 1012.3 |
| 20260507082911 | 2 | 230 | 0.0 | 1.6 | 0.00 | 1.42 | 0.00 | 92 | 1011.0 |
| 20260507082155 | 2 | 0 | 0.0 | 0.0 | 0.00 | 1.45 | 0.00 | 92 | 1011.1 |
| 20260507081505 | 2 | 276 | 0.0 | 1.6 | 0.00 | 1.42 | 0.00 | 92 | 1012.2 |
| 20260507075537 | 3 | 0 | 0.0 | 0.0 | 0.00 | 1.57 | 0.00 | 92 | 1011.1 |
| 20260507074557 | 2 | 276 | 0.0 | 4.8 | 0.00 | 1.55 | 0.00 | 92 | 1012.3 |
| 20260507074318 | 3 | 0 | 0.0 | 0.0 | 0.00 | 1.57 | 0.00 | 92 | 1011.2 |
| 20260507073043 | 2 | 231 | 0.0 | 1.6 | 0.00 | 1.55 | 0.00 | 92 | 1012.0 |
| 20260507072707 | 3 | 0 | 0.0 | 0.0 | 0.00 | 1.57 | 0.00 | 91 | 1011.1 |
| 20260507071740 | 3 | 313 | 1.6 | 3.2 | 0.00 | 1.57 | 0.00 | 92 | 1011.1 |
| 20260507070914 | 3 | 313 | 1.6 | 3.2 | 0.00 | 1.57 | 0.00 | 91 | 1010.8 |
| 20260507070137 | 2 | 295 | 0.0 | 1.6 | 0.00 | 1.55 | 0.00 | 92 | 1011.9 |
| 20260507065909 | 4 | 327 | 0.0 | 3.2 | 0.00 | 1.57 | 0.00 | 93 | 1011.0 |
| 20260507065131 | 4 | 0 | 0.0 | 0.0 | 0.00 | 1.57 | 0.00 | 92 | 1010.9 |
| 20260507064638 | 3 | 295 | 0.0 | 1.6 | 0.00 | 1.57 | 0.00 | 91 | 1011.7 |
| 20260507063520 | 4 | 294 | 1.6 | 3.2 | 0.00 | 1.57 | 0.00 | 92 | 1010.9 |
| 20260507061405 | 4 | 0 | 0.0 | 0.0 | 0.00 | 1.57 | 0.00 | 93 | 1011.3 |
| 20260507060439 | 4 | 288 | 0.0 | 1.6 | 0.00 | 1.57 | 0.00 | 92 | 1011.4 |
| 20260507060138 | 4 | 339 | 0.0 | 1.6 | 0.00 | 1.57 | 0.00 | 93 | 1012.1 |
| 20260507055459 | 4 | 0 | 1.6 | 0.0 | 0.00 | 1.57 | 0.00 | 92 | 1011.3 |
| 20260507054746 | 4 | 356 | 3.2 | 3.2 | 0.00 | 1.57 | 0.00 | 93 | 1011.3 |
| 20260507054519 | 4 | 288 | 0.0 | 4.8 | 0.00 | 1.57 | 0.00 | 92 | 1011.9 |
| 20260507053919 | 4 | 316 | 1.6 | 1.6 | 0.00 | 1.57 | 0.00 | 97 | 1011.3 |
| 20260507052823 | 4 | 311 | 1.6 | 3.2 | 0.00 | 1.57 | 0.00 | 98 | 1011.5 |
| 20260507052000 | 4 | 316 | 0.0 | 4.8 | 0.00 | 1.57 | 0.00 | 98 | 1011.6 |
| 20260507051659 | 4 | 360 | 3.2 | 6.4 | 0.00 | 1.57 | 0.00 | 95 | 1012.1 |
| 20260507051436 | 4 | 314 | 0.0 | 1.6 | 0.00 | 1.57 | 0.00 | 98 | 1011.5 |
| 20260507050139 | 4 | 353 | 0.0 | 3.2 | 0.00 | 1.57 | 0.00 | 98 | 1011.0 |
| 20260507045206 | 4 | 0 | 0.0 | 0.0 | 0.00 | 1.57 | 0.00 | 98 | 1011.3 |
| 20260507045048 | 4 | 0 | 0.0 | 0.0 | 0.00 | 1.57 | 0.00 | 98 | 1011.3 |
| 20260507044504 | 3 | 297 | 0.0 | 6.4 | 0.00 | 1.57 | 0.00 | 98 | 1012.1 |
| 20260507043831 | 4 | 302 | 0.0 | 1.6 | 0.00 | 1.57 | 0.00 | 98 | 1011.6 |
| 20260507043125 | 3 | 315 | 0.0 | 1.6 | 0.00 | 1.57 | 0.00 | 98 | 1012.3 |
| 20260507042621 | 4 | 309 | 0.0 | 1.6 | 0.00 | 1.57 | 0.00 | 98 | 1011.5 |
| 20260507041607 | 4 | 312 | 0.0 | 1.6 | 0.00 | 1.57 | 0.00 | 98 | 1011.4 |
| 20260507041551 | 4 | 343 | 0.0 | 3.2 | 0.00 | 1.57 | 0.00 | 98 | 1012.1 |
| 20260507041130 | 4 | 312 | 0.0 | 1.6 | 0.00 | 1.57 | 0.00 | 98 | 1011.5 |
| 20260507034857 | 4 | 31 | 0.0 | 1.6 | 0.00 | 1.57 | 1.57 | 98 | 1011.3 |
| 20260507034535 | 4 | 305 | 0.0 | 1.6 | 0.00 | 1.57 | 1.57 | 98 | 1011.7 |
| 20260507034000 | 4 | 31 | 0.0 | 1.6 | 0.00 | 1.57 | 1.57 | 98 | 1011.0 |
| 20260507033120 | 4 | 339 | 0.0 | 3.2 | 0.00 | 1.57 | 1.57 | 98 | 1010.9 |
| 20260507033031 | 4 | 30 | 0.0 | 1.6 | 0.00 | 1.57 | 1.57 | 98 | 1011.4 |
| 20260507032155 | 4 | 329 | 0.0 | 3.2 | 0.00 | 1.57 | 1.57 | 98 | 1011.0 |
| 20260507031509 | 4 | 85 | 0.0 | 1.6 | 0.00 | 1.57 | 1.57 | 98 | 1011.4 |
| 20260507031253 | 4 | 248 | 0.0 | 3.2 | 0.00 | 1.57 | 1.57 | 98 | 1010.9 |
| 20260507030420 | 5 | 331 | 3.2 | 4.8 | 0.00 | 1.57 | 1.57 | 98 | 1010.8 |
| 20260507024724 | 5 | 341 | 3.2 | 9.7 | 0.00 | 1.57 | 1.57 | 98 | 1010.6 |
| 20260507024525 | 4 | 297 | 1.6 | 9.7 | 0.00 | 1.57 | 1.57 | 98 | 1010.9 |
| 20260507023819 | 5 | 345 | 3.2 | 9.7 | 0.00 | 1.57 | 1.57 | 98 | 1010.8 |
| 20260507023117 | 5 | 346 | 1.6 | 9.7 | 0.00 | 1.57 | 1.57 | 98 | 1011.2 |
| 20260507022834 | 5 | 348 | 1.6 | 3.2 | 0.00 | 1.57 | 1.57 | 98 | 1011.0 |
| 20260507022201 | 5 | 313 | 1.6 | 6.4 | 0.00 | 1.57 | 1.57 | 98 | 1011.1 |
| 20260507021506 | 5 | 8 | 1.6 | 6.4 | 0.00 | 1.57 | 1.57 | 98 | 1011.3 |
| 20260507020201 | 6 | 321 | 4.8 | 4.8 | 0.00 | 1.57 | 1.57 | 98 | 1011.2 |
| 20260507020144 | 5 | 350 | 1.6 | 12.9 | 0.00 | 1.57 | 1.57 | 98 | 1011.2 |
| 20260507015426 | 6 | 306 | 3.2 | 4.8 | 0.00 | 1.57 | 1.57 | 98 | 1011.2 |
| 20260507014526 | 6 | 308 | 3.2 | 3.2 | 0.00 | 1.57 | 1.57 | 98 | 1011.4 |
| 20260507014512 | 5 | 326 | 1.6 | 4.8 | 0.00 | 1.57 | 1.57 | 98 | 1011.6 |
| 20260507013006 | 5 | 349 | 3.2 | 9.7 | 0.00 | 1.57 | 1.57 | 98 | 1011.4 |
| 20260507012716 | 6 | 323 | 1.6 | 3.2 | 0.00 | 1.57 | 1.57 | 98 | 1011.4 |
| 20260507012120 | 6 | 330 | 1.6 | 3.2 | 0.00 | 1.57 | 1.57 | 98 | 1010.9 |
| 20260507011523 | 6 | 336 | 0.0 | 4.8 | 0.00 | 1.57 | 1.57 | 98 | 1011.2 |
| 20260507010722 | 6 | 326 | 1.6 | 3.2 | 0.00 | 1.57 | 1.57 | 98 | 1011.3 |
| 20260507010132 | 6 | 322 | 1.6 | 8.0 | 0.00 | 1.57 | 1.57 | 98 | 1011.0 |
| 20260507005759 | 6 | 325 | 1.6 | 3.2 | 0.00 | 1.57 | 1.57 | 98 | 1011.3 |
| 20260507004924 | 6 | 331 | 0.0 | 3.2 | 0.00 | 1.57 | 1.57 | 98 | 1011.0 |
| 20260507004508 | 6 | 287 | 0.0 | 3.2 | 0.00 | 1.57 | 1.57 | 98 | 1011.1 |
| 20260507003957 | 6 | 13 | 0.0 | 3.2 | 0.00 | 1.57 | 1.57 | 98 | 1011.1 |
| 20260507003005 | 6 | 34 | 0.0 | 4.8 | 0.00 | 1.57 | 1.57 | 98 | 1010.6 |
| 20260507001612 | 6 | 347 | 0.0 | 6.4 | 0.00 | 1.57 | 1.57 | 98 | 1010.5 |
| 20260507001248 | 6 | 304 | 1.6 | 4.8 | 0.00 | 1.57 | 1.57 | 98 | 1010.7 |
| 20260507000400 | 6 | 8 | 0.0 | 1.6 | 0.00 | 1.57 | 1.57 | 98 | 1010.5 |
| 20260507000051 | 6 | 301 | 0.0 | 3.2 | 0.00 | 1.57 | 1.57 | 98 | 1010.2 |
| 20260506235507 | 6 | 16 | 0.0 | 1.6 | 0.00 | 1.57 | 1.57 | 98 | 1010.2 |
| 20260506234721 | 6 | 22 | 0.0 | 1.6 | 0.00 | 1.57 | 1.57 | 98 | 1010.1 |
| 20260506234510 | 6 | 301 | 0.0 | 1.6 | 0.00 | 1.57 | 1.57 | 98 | 1010.0 |
| 20260506233658 | 6 | 327 | 0.0 | 1.6 | 0.00 | 1.57 | 1.57 | 98 | 1009.9 |
| 20260506233035 | 6 | 20 | 0.0 | 3.2 | 0.00 | 1.57 | 1.57 | 98 | 1010.0 |
| 20260506232756 | 6 | 338 | 0.0 | 1.6 | 0.00 | 1.57 | 1.57 | 98 | 1010.0 |
| 20260506231603 | 6 | 291 | 0.0 | 1.6 | 0.00 | 1.57 | 1.57 | 98 | 1009.9 |
| 20260506230959 | 6 | 332 | 1.6 | 6.4 | 0.00 | 1.57 | 1.57 | 98 | 1009.8 |
| 20260506230129 | 6 | 312 | 1.6 | 4.8 | 0.00 | 1.57 | 1.57 | 98 | 1009.5 |
| 20260506230058 | 6 | 337 | 0.0 | 6.4 | 0.00 | 1.57 | 1.57 | 98 | 1009.6 |
| 20260506225154 | 6 | 333 | 3.2 | 8.0 | 0.00 | 1.57 | 1.57 | 98 | 1009.6 |
| 20260506224622 | 7 | 335 | 3.2 | 8.0 | 0.00 | 1.57 | 1.57 | 98 | 1009.8 |
| 20260506224603 | 6 | 328 | 0.0 | 4.8 | 0.00 | 1.57 | 1.57 | 98 | 1009.6 |
| 20260506223419 | 7 | 318 | 3.2 | 4.8 | 0.00 | 1.57 | 1.57 | 98 | 1009.8 |
| 20260506223059 | 6 | 350 | 3.2 | 8.0 | 0.00 | 1.57 | 1.57 | 98 | 1009.7 |
| 20260506222505 | 7 | 309 | 1.6 | 4.8 | 0.00 | 1.57 | 1.57 | 98 | 1009.6 |
| 20260506221613 | 7 | 301 | 1.6 | 3.2 | 0.00 | 1.57 | 1.57 | 98 | 1009.6 |
| 20260506221610 | 6 | 287 | 3.2 | 9.7 | 0.00 | 1.57 | 1.57 | 98 | 1009.3 |
| 20260506220040 | 7 | 34 | 1.6 | 4.8 | 0.00 | 1.57 | 1.57 | 98 | 1009.0 |
| 20260506215755 | 7 | 321 | 1.6 | 6.4 | 0.00 | 1.57 | 1.57 | 98 | 1009.4 |
| 20260506214948 | 7 | 307 | 4.8 | 8.0 | 0.00 | 1.57 | 1.57 | 98 | 1009.3 |
| 20260506214058 | 7 | 325 | 4.8 | 8.0 | 0.00 | 1.57 | 1.57 | 98 | 1009.3 |
| 20260506213424 | 7 | 331 | 4.8 | 8.0 | 0.00 | 1.57 | 1.57 | 98 | 1009.1 |
| 20260506213013 | 7 | 322 | 0.0 | 11.3 | 0.00 | 1.57 | 1.57 | 98 | 1008.6 |
| 20260506212320 | 7 | 325 | 3.2 | 6.4 | 0.00 | 1.57 | 1.57 | 98 | 1009.0 |
| 20260506211534 | 7 | 290 | 6.4 | 12.9 | 0.00 | 1.57 | 1.57 | 98 | 1008.5 |
| 20260506211329 | 7 | 322 | 3.2 | 9.7 | 0.00 | 1.57 | 1.57 | 98 | 1009.0 |
| 20260506210445 | 7 | 327 | 3.2 | 9.7 | 0.00 | 1.57 | 1.57 | 98 | 1008.8 |
| 20260506210106 | 7 | 318 | 3.2 | 4.8 | 0.00 | 1.57 | 1.57 | 98 | 1008.3 |
| 20260506205504 | 7 | 329 | 1.6 | 6.4 | 0.00 | 1.57 | 1.57 | 98 | 1008.8 |
| 20260506204558 | 7 | 342 | 4.8 | 8.0 | 0.00 | 1.57 | 1.57 | 98 | 1008.7 |
| 20260506204546 | 7 | 340 | 1.6 | 6.4 | 0.00 | 1.57 | 1.57 | 98 | 1008.1 |
| 20260506203720 | 8 | 334 | 3.2 | 6.4 | 0.00 | 1.57 | 1.57 | 98 | 1008.5 |
| 20260506203156 | 7 | 349 | 4.8 | 11.3 | 0.00 | 1.57 | 1.57 | 98 | 1007.8 |
| 20260506202913 | 8 | 334 | 3.2 | 8.0 | 0.00 | 1.57 | 1.57 | 98 | 1008.3 |
| 20260506201918 | 8 | 325 | 1.6 | 3.2 | 0.00 | 1.57 | 1.57 | 98 | 1008.4 |
| 20260506201538 | 7 | 297 | 0.0 | 9.7 | 0.00 | 1.57 | 1.57 | 98 | 1007.8 |
| 20260506200207 | 7 | 318 | 4.8 | 6.4 | 0.00 | 1.57 | 1.57 | 98 | 1008.2 |
| 20260506200005 | 7 | 308 | 1.6 | 8.0 | 0.00 | 1.57 | 1.57 | 98 | 1007.6 |
| 20260506195209 | 7 | 324 | 6.4 | 12.9 | 0.00 | 1.57 | 1.57 | 98 | 1008.2 |
| 20260506194632 | 7 | 6 | 6.4 | 12.9 | 0.00 | 1.57 | 1.57 | 98 | 1007.2 |
| 20260506194438 | 8 | 330 | 4.8 | 8.0 | 0.00 | 1.57 | 1.57 | 98 | 1008.0 |
| 20260506193435 | 8 | 320 | 4.8 | 6.4 | 0.00 | 1.57 | 1.57 | 98 | 1008.2 |
| 20260506192504 | 8 | 323 | 6.4 | 11.3 | 0.00 | 1.57 | 1.57 | 98 | 1008.0 |
| 20260506191635 | 8 | 318 | 3.2 | 12.9 | 0.00 | 1.57 | 1.57 | 98 | 1007.0 |
| 20260506191600 | 8 | 323 | 6.4 | 12.9 | 0.00 | 1.57 | 1.57 | 98 | 1007.7 |
| 20260506190652 | 8 | 322 | 6.4 | 12.9 | 0.00 | 1.57 | 1.57 | 98 | 1007.7 |
| 20260506190010 | 8 | 333 | 6.4 | 14.5 | 0.00 | 1.57 | 1.57 | 98 | 1006.8 |
| 20260506185830 | 8 | 328 | 6.4 | 12.9 | 0.00 | 1.57 | 1.57 | 98 | 1007.6 |
| 20260506184859 | 8 | 329 | 6.4 | 11.3 | 0.00 | 1.57 | 1.57 | 98 | 1007.6 |
| 20260506184635 | 8 | 326 | 3.2 | 12.9 | 0.00 | 1.63 | 1.57 | 98 | 1006.8 |
| 20260506183948 | 8 | 336 | 8.0 | 12.9 | 0.00 | 1.57 | 1.57 | 98 | 1007.5 |
| 20260506183122 | 8 | 316 | 6.4 | 12.9 | 0.00 | 1.63 | 1.57 | 98 | 1006.8 |
| 20260506181622 | 8 | 315 | 11.3 | 17.7 | 0.00 | 1.63 | 1.57 | 98 | 1006.6 |
| 20260506181525 | 8 | 324 | 8.0 | 16.1 | 0.00 | 1.57 | 1.57 | 98 | 1007.3 |
| 20260506180408 | 8 | 323 | 8.0 | 16.1 | 0.03 | 1.60 | 1.57 | 98 | 1007.1 |
| 20260506180053 | 8 | 323 | 9.7 | 16.1 | 0.00 | 1.63 | 1.57 | 98 | 1006.3 |
| 20260506175455 | 8 | 322 | 8.0 | 16.1 | 0.03 | 1.85 | 1.57 | 98 | 1007.2 |
| 20260506174603 | 8 | 312 | 8.0 | 14.5 | 0.03 | 1.88 | 1.57 | 98 | 1006.1 |
| 20260506173647 | 9 | 326 | 4.8 | 9.7 | 0.03 | 1.88 | 1.57 | 98 | 1007.0 |
| 20260506173006 | 9 | 319 | 3.2 | 8.0 | 0.03 | 1.88 | 1.57 | 98 | 1006.0 |
| 20260506171902 | 10 | 320 | 3.2 | 8.0 | 0.03 | 1.88 | 1.57 | 98 | 1006.6 |
| 20260506171533 | 9 | 324 | 1.6 | 8.0 | 0.03 | 1.88 | 1.57 | 98 | 1005.6 |
| 20260506171020 | 9 | 327 | 4.8 | 8.0 | 0.08 | 1.88 | 1.57 | 98 | 1006.6 |
| 20260506170352 | 9 | 318 | 4.8 | 8.0 | 0.08 | 1.85 | 1.55 | 98 | 1006.7 |
| 20260506170140 | 9 | 325 | 1.6 | 8.0 | 0.10 | 1.88 | 1.57 | 98 | 1005.6 |
| 20260506165244 | 10 | 315 | 3.2 | 4.8 | 0.10 | 1.85 | 1.55 | 98 | 1006.8 |
| 20260506164631 | 9 | 307 | 1.6 | 9.7 | 0.10 | 1.85 | 1.55 | 98 | 1005.6 |
| 20260506164309 | 10 | 324 | 6.4 | 9.7 | 0.13 | 1.85 | 1.55 | 98 | 1006.7 |
| 20260506163454 | 10 | 325 | 6.4 | 9.7 | 0.13 | 1.85 | 1.55 | 98 | 1006.7 |
| 20260506163044 | 10 | 347 | 3.2 | 9.7 | 0.13 | 1.85 | 1.55 | 98 | 1005.5 |
| 20260506162514 | 11 | 326 | 6.4 | 11.3 | 0.13 | 1.85 | 1.55 | 98 | 1006.6 |
| 20260506161605 | 11 | 343 | 6.4 | 11.3 | 0.13 | 1.85 | 1.55 | 98 | 1005.4 |
| 20260506161552 | 11 | 330 | 6.4 | 11.3 | 0.13 | 1.85 | 1.55 | 98 | 1006.6 |
| 20260506160652 | 12 | 140 | 1.6 | 8.0 | 0.05 | 1.78 | 1.47 | 99 | 1006.3 |
| 20260506160004 | 11 | 119 | 0.0 | 4.8 | 0.03 | 1.75 | 1.42 | 99 | 1004.9 |
| 20260506155749 | 12 | 154 | 1.6 | 4.8 | 0.03 | 1.75 | 1.45 | 99 | 1006.2 |
| 20260506154849 | 12 | 155 | 3.2 | 9.7 | 0.03 | 1.75 | 1.45 | 99 | 1006.1 |
| 20260506154603 | 11 | 158 | 3.2 | 11.3 | 0.00 | 1.73 | 1.42 | 99 | 1004.7 |
| 20260506153048 | 12 | 153 | 3.2 | 9.7 | 0.03 | 1.73 | 1.42 | 99 | 1005.8 |
| 20260506153001 | 11 | 189 | 3.2 | 6.4 | 0.03 | 1.73 | 1.42 | 99 | 1004.5 |
| 20260506151604 | 11 | 138 | 3.2 | 8.0 | 0.03 | 1.73 | 1.42 | 99 | 1004.4 |
| 20260506151254 | 11 | 157 | 4.8 | 9.7 | 0.03 | 1.73 | 1.42 | 99 | 1005.6 |
| 20260506150402 | 11 | 158 | 3.2 | 9.7 | 0.03 | 1.73 | 1.42 | 99 | 1005.7 |
| 20260506150058 | 11 | 154 | 3.2 | 9.7 | 0.03 | 1.73 | 1.42 | 99 | 1004.5 |
| 20260506145501 | 11 | 159 | 6.4 | 11.3 | 0.03 | 1.73 | 1.42 | 99 | 1005.8 |
| 20260506144605 | 11 | 175 | 4.8 | 12.9 | 0.03 | 1.73 | 1.42 | 99 | 1004.5 |
| 20260506144558 | 11 | 162 | 6.4 | 11.3 | 0.05 | 1.73 | 1.42 | 99 | 1005.9 |
| 20260506143825 | 11 | 151 | 4.8 | 12.9 | 0.03 | 1.70 | 1.40 | 99 | 1005.8 |
| 20260506143007 | 11 | 154 | 3.2 | 16.1 | 0.03 | 1.70 | 1.40 | 99 | 1004.6 |
| 20260506141903 | 11 | 166 | 4.8 | 12.9 | 0.05 | 1.70 | 1.40 | 98 | 1005.9 |
| 20260506141505 | 11 | 146 | 6.4 | 14.5 | 0.03 | 1.70 | 1.40 | 98 | 1004.4 |
| 20260506140956 | 11 | 156 | 4.8 | 9.7 | 0.08 | 1.70 | 1.40 | 98 | 1005.7 |
| 20260506140112 | 11 | 153 | 6.4 | 11.3 | 0.10 | 1.70 | 1.40 | 98 | 1004.1 |
| 20260506140054 | 11 | 151 | 4.8 | 9.7 | 0.10 | 1.70 | 1.40 | 98 | 1005.4 |
| 20260506135212 | 11 | 164 | 6.4 | 9.7 | 0.10 | 1.68 | 1.37 | 98 | 1005.3 |
| 20260506134636 | 11 | 157 | 3.2 | 9.7 | 0.13 | 1.70 | 1.40 | 98 | 1004.1 |
| 20260506134311 | 11 | 168 | 6.4 | 9.7 | 0.10 | 1.68 | 1.37 | 98 | 1005.4 |
| 20260506133417 | 11 | 168 | 8.0 | 12.9 | 0.13 | 1.68 | 1.37 | 98 | 1005.6 |
| 20260506133036 | 11 | 169 | 4.8 | 12.9 | 0.15 | 1.68 | 1.37 | 98 | 1004.3 |
| 20260506132503 | 11 | 171 | 6.4 | 12.9 | 0.15 | 1.65 | 1.35 | 98 | 1005.7 |
| 20260506131603 | 11 | 166 | 6.4 | 12.9 | 0.20 | 1.65 | 1.35 | 98 | 1005.6 |
| 20260506131525 | 11 | 158 | 6.4 | 14.5 | 0.20 | 1.65 | 1.35 | 98 | 1004.2 |